Regional Weather Roundup
Issued by NWS

Home | Current Version | Previous Version | Text Only | Print | Product List | Glossary Off
Versions: 1 2 3 4 5 6 7 8 9 10 11 12 13 14 15 16 17 18 19 20 21 22 23 24 25 26 27 28 29 30 31 32 33 34 35 36 37 38 39 40 41 42 43 44 45 46 47 48 49 50

000
ASUS43 KIND 080259
RWRIN

WEATHER ROUNDUP FOR INDIANA
NATIONAL WEATHER SERVICE INDIANAPOLIS IN
1000 PM EST SUN FEB 07 2016

NOTE: "FAIR" INDICATES FEW OR NO CLOUDS BELOW 12,000 FEET WITH NO
SIGNIFICANT WEATHER AND/OR OBSTRUCTIONS TO VISIBILITY.

* - STATION DOES NOT REPORT WEATHER SUCH AS PRECIPITATION OR FOG.

+ - STATION NOT QUALITY CONTROLLED BY THE NATIONAL WEATHER SERVICE.
    USE DATA WITH CAUTION...ESPECIALLY DEWPOINT AND RELATIVE
    HUMIDITY OBSERVATIONS.

INZ001>003-010>013-019-020-080400-
NORTHWEST INDIANA

CITY           SKY/WX    TMP DP  RH WIND       PRES   REMARKS
GARY /AIRPORT/ PTCLDY    39  27  60 SW12      29.76
RENSSELAER +   PTCLDY    36  30  80 W10       29.78F

$$

LMZ046-743>745-080400-
SOUTHERN LAKE MICHIGAN

STATION/POSITION TIME  TEMP    WIND        PRES    WAVE
                       AIR SEA DIR/SP/G            HT
                 (UTC) (F)     (DEG/KT/KT) (MB)    (FT)
BURNS HARBOR     0200   40     240/ 12/ 15 1008.5S
MICHIGAN CITY    0200   37     220/ 16/ 17   N/A

$$

INZ004-005-014>016-021>024-080400-
NORTH CENTRAL INDIANA

CITY           SKY/WX    TMP DP  RH WIND       PRES   REMARKS
GOSHEN         MOCLDY    35  30  82 SW7       29.73F WCI  29
SOUTH BEND     PTCLDY    34  30  85 SW8       29.74F WCI  27

$$

INZ006>009-017-018-025>027-080400-
NORTHEAST INDIANA

CITY           SKY/WX    TMP DP  RH WIND       PRES   REMARKS
ANGOLA *+      CLEAR     39  34  81 W7        29.73S
FORT WAYNE     CLOUDY    40  32  73 W13       29.76F

$$

INZ028-029-035-036-043>045-051>053-080400-
WEST CENTRAL INDIANA

CITY           SKY/WX    TMP DP  RH WIND       PRES   REMARKS
GREENCASTLE +  CLEAR     37  28  70 W3        29.81F
LAFAYETTE      PTCLDY    38  31  76 W7        29.78F
TERRE HAUTE    PTCLDY    41  31  67 W8        29.83F

$$

INZ030>032-037>040-046>048-054>057-064-065-080400-
CENTRAL INDIANA

CITY           SKY/WX    TMP DP  RH WIND       PRES   REMARKS
INDIANAPOLIS   PTCLDY    37  30  75 W8        29.79F
-EAGLE CREEK   PTCLDY    41  32  70 W7        29.79F
KOKOMO *+        N/A     37  30  75 W12       29.77F
MT COMFORT *+  CLOUDY    41  32  70 W9        29.79F
SHELBYVILLE    CLOUDY    45  32  60 W10       29.79S

$$

INZ033-034-041-042-049-050-058-059-080400-
EAST CENTRAL INDIANA

CITY           SKY/WX    TMP DP  RH WIND       PRES   REMARKS
MUNCIE         CLOUDY    44  33  65 W8        29.78F

$$

INZ060-061-067>069-081>083-085>088-080400-
SOUTHWEST INDIANA

CITY           SKY/WX    TMP DP  RH WIND       PRES   REMARKS
EVANSVILLE     CLOUDY    49  31  49 W6        29.86S
HUNTINGBURG *+ CLOUDY    45  30  57 W8        29.85S

$$

INZ062-063-066-070>080-084-089>092-080400-
SOUTH CENTRAL AND SOUTHEAST INDIANA

CITY           SKY/WX    TMP DP  RH WIND       PRES   REMARKS
BLOOMINGTON    PTCLDY    44  30  57 NW8       29.81F
MADISON *+     CLOUDY    45  27  49 S7        29.83F
SEYMOUR +      CLOUDY    46  30  53 SW7       29.80F

$$




USA.gov is the U.S. government's official web portal to all federal, state and local government web resources and services.